星链-2233 (STARLINK-2233 )

导读

STARLINK-2233是美国SpaceX公司星链(Starlink)卫星互联网星座中的一颗卫星,于2021年5月15日由美国发射升空,运行在低地球轨道。星链星座计划由数万颗低成本小卫星组成,旨在构建覆盖全球的卫星宽带网络,为全球尤其是偏远地区提供高速互联网接入服务,支撑文本、语音与数据传输,推动全球无缝通信覆盖。

Basic Information
目录编号:
48579
目录名称:
STARLINK-2233
国际标识:
2021-041AC
轨道中心:
EARTH
卫星名称:
星链-2233
卫星全名:
星链-2233 (STARLINK-2233 )
卫星状态:
已陨落 最后检测时间 2024-05-15
发射日期:
2021-05-15 UTC
国别 :
美国 (US)
星等 :
--
Orbit Information
数据来源 国际轨道数据
星历时间: 2024-05-15T08:15:58+0800
轨道信息已过期760天
半长轴: 6596.663km
偏心率: 0.0005127
轨道倾角: 53.043°
近地点辐角 326.326°
升交点赤经 206.047°
平近点角 168.420°
近地点: 215.145km
远地点: 221.911km
周期: 88.868分钟
每日圈数: 16.203781
Detailed Information
固有亮度:
5
最大亮度:
2.5
卫星平台:
Starlink V1.0
覆盖范围:
全球
运营商:
太空探索技术公司
运营商所在国:
美国
制造商(研发单位):
太空探索技术公司
制造商所在国:
美国
使用方式:
暂无
Satellite Introduction
星链(Starlink)计划是由太空探索技术公司(SpaceX)提出的一个巨型低轨卫星互联网星座项目,计划在2019年至2024年间在太空搭建由约1.2万颗卫星组成的“星链”网络,其中1584颗将部署在地球上空550千米处的近地轨道,并从2020年开始工作。该卫星已陨落。